Moses Lake, WA

1:49 AM PDT on August 23, 2017 (GMT -0700)
Grant County International

Weather History for KMWH - September, 2012

Change the Weather History Date:

Friday, September 14, 2012

  Actual Average Record
Temperature  
Mean Temperature 65 °F 63 °F  
Max Temperature 84 °F 79 °F 94 °F (2013)
Min Temperature 45 °F 47 °F 35 °F (1986)
Degree Days  
Heating Degree Days 0 3  
Month to date heating degree days 25 30  
Since 1 July heating degree days 37 50  
Cooling Degree Days 0 1  
Month to date cooling degree days 27 35  
Year to date cooling degree days 708 605  
Growing Degree Days 14 (Base 50)    
Moisture  
Dew Point 32 °F    
Average Humidity 33    
Maximum Humidity 53    
Minimum Humidity 13    
Precipitation  
Precipitation 0.00 in 0.01 in 0.33 in (1980)
Month to date precipitation T 0.12  
Year to date precipitation 5.58 5.55  
Sea Level Pressure  
Sea Level Pressure 30.05 in    
Wind  
Wind Speed 4 mph (NW)    
Max Wind Speed 9 mph    
Max Gust Speed 12 mph    
Visibility 8 miles    
Events      
T = Trace of Precipitation, MM = Missing Value Source: NWS Daily Summary

Daily Weather History Graph

Daily Weather History Graph

Search for Another Location

Airport or City:

Trip Planner

Search our weather history database for the weather conditions in past years. The results will help you decide how hot, cold, wet, or windy it might be!

Date:

Astronomy

Sep. 14, 2012 Rise Set
Actual Time 6:34 AM PDT 7:10 PM PDT
Civil Twilight 6:03 AM PDT 7:40 PM PDT
Nautical Twilight 5:26 AM PDT 8:17 PM PDT
Astronomical Twilight 4:48 AM PDT 8:55 PM PDT
Moon 5:01 AM PDT (9/14) 6:09 PM PDT (9/14)
Length of Visible Light 13h 37m
Length of Day
12h 35m
Waning Crescent, 2% of the Moon is Illuminated
Sep 14
Waning Crescent
Sep 15
New
Sep 22
First Quarter
Sep 29
Full
Oct 8
Last Quarter

Hourly Weather History & Observations

Time (PDT) Temp. Windchill Dew Point Humidity Pressure Visibility Wind Dir Wind Speed Gust Speed Precip Events Conditions
12:52 AM 51.1 °F - 32.0 °F 48% 30.14 in 10.0 mi North 6.9 mph - N/A   Clear
1:52 AM 51.1 °F - 28.0 °F 41% 30.14 in 10.0 mi North 5.8 mph - N/A   Clear
2:52 AM 50.0 °F - 28.0 °F 43% 30.12 in 10.0 mi North 5.8 mph - N/A   Clear
3:52 AM 46.9 °F - 28.0 °F 48% 30.11 in 10.0 mi North 5.8 mph - N/A   Clear
4:52 AM 48.0 °F - 28.0 °F 46% 30.11 in 10.0 mi North 6.9 mph - N/A   Clear
5:52 AM 46.9 °F - 28.0 °F 48% 30.11 in 10.0 mi North 4.6 mph - N/A   Clear
6:52 AM 45.0 °F 41.2 °F 28.9 °F 53% 30.12 in 10.0 mi NE 6.9 mph - N/A   Clear
7:52 AM 52.0 °F - 28.9 °F 41% 30.12 in 10.0 mi Calm Calm - N/A   Clear
8:52 AM 59.0 °F - 30.0 °F 33% 30.12 in 10.0 mi ENE 4.6 mph - N/A   Clear
9:52 AM 64.0 °F - 30.9 °F 29% 30.11 in 7.0 mi Calm Calm - N/A   Clear
10:52 AM 66.9 °F - 28.9 °F 24% 30.11 in 6.0 mi Calm Calm - N/A   Haze
11:52 AM 73.4 °F - 30.2 °F 20% 30.09 in 5.0 mi Calm Calm - N/A   Haze
12:52 PM 80.1 °F - 30.0 °F 16% 30.06 in 6.0 mi Variable 3.5 mph - N/A   Smoke
1:52 PM 82.0 °F - 28.0 °F 14% 30.04 in 8.0 mi SSW 5.8 mph - N/A   Smoke
2:52 PM 82.0 °F - 27.0 °F 13% 30.02 in 10.0 mi SSW 6.9 mph - N/A   Smoke
3:52 PM 82.9 °F - 30.9 °F 15% 30.00 in 9.0 mi SSW 5.8 mph - N/A   Clear
4:52 PM 82.0 °F - 33.1 °F 17% 29.98 in 10.0 mi SSW 5.8 mph - N/A   Clear
5:52 PM 80.1 °F - 33.1 °F 18% 29.96 in 9.0 mi SSW 5.8 mph - N/A   Clear
6:52 PM 78.1 °F - 33.1 °F 19% 29.96 in 7.0 mi SSW 6.9 mph - N/A   Clear
7:52 PM 73.9 °F - 37.9 °F 27% 29.97 in 8.0 mi SW 3.5 mph - N/A   Clear
8:52 PM 69.1 °F - 37.9 °F 32% 29.97 in 7.0 mi Calm Calm - N/A   Clear
9:52 PM 66.9 °F - 39.0 °F 36% 29.97 in 7.0 mi Calm Calm - N/A   Clear
10:52 PM 62.1 °F - 39.9 °F 44% 29.97 in 7.0 mi Calm Calm - N/A   Clear
11:52 PM 60.8 °F - 39.2 °F 45% 29.98 in 7.0 mi Calm Calm - N/A   Clear